Location: Mouss�
(47.9236°N, 1.2701°W)
Time: 00:10:22
(UTC+00:00)

Cosmos 1703 Rocket - Pass Details

Date: 03 March 2021
Orbit: 604 x 634 km, 82.5° (Epoch: 20 April)

Event Time Altitude Azimuth Distance (km) Brightness Sun altitude
Rises 18:47:00 0° 357° (N) 2,915 7.1 -9.9°
Reaches altitude 10° 18:49:24 10° 6° (N) 1,999 6.1 -10.3°
Maximum altitude 18:53:29 35° 73° (ENE) 995 4.1 -11.0°
Drops below altitude 10° 18:57:30 10° 140° (SE) 1,967 5.7 -11.6°
Enters shadow 18:59:27 - 149° (SSE) 2,710 6.5 -12.0°
